Home > Weather > McAllen > Past weeks

Flag for U.S.A. Weather for the Past 2 Weeks in McAllen, Texas, U.S.A.

Now
60 °F

Clear.


Feels Like: 60 °F
Forecast: 39 / 75 °F
Wind: 5 mph from North

Location: Miller International Airport

Current Time: Feb 6, 2016 at 8:45:18 PM

Latest Report: Feb 6, 2016 at 7:53 PM


Visibility: 10 mi

Pressure: 30.37 "Hg

Humidity: 24%

Dew point: 23 °F

Location of McAllenLocation

Historic Weather in McAllen — Graph

°F

McAllen Temperature Yesterday

Maximum temperature yesterday: 70 °F (at 11:53 AM)
Minimum temperature yesterday: 40 °F (at 6:53 AM)
Average temperature yesterday: 57 °F

High & Low Weather Summary for the Past Weeks

 TemperatureHumidityPressure
High94 °F (Jan 31, 3:53 PM)93% (Jan 31, 7:53 AM)30.50 "Hg (Jan 31, 7:53 AM)
Low40 °F (Jan 28, 6:53 AM)10% (Feb 6, 3:53 PM)29.55 "Hg (Feb 2, 2:53 AM)
Average62 °F56%30.08 "Hg
* Reported Jan 22 6:53 PM — Feb 6 6:53 PM, McAllen, Weather by CustomWeather, © 2016

Note: Actual official high and low records may vary slightly from our data, if they occured in-between our weather recording intervals... More about our weather records

Advertising

McAllen Weather History for the Previous 24 Hours

 ConditionsComfort  
Time TempWeatherWind HumidityBarometerVisibility
6:53 PM
Sat, Feb 6
60 °FClear.5 mph21%30.35 "Hg10 mi
5:53 PM69 °FSunny.7 mph14%30.34 "Hg10 mi
4:53 PM73 °FSunny.13 mph10%30.33 "Hg10 mi
3:53 PM75 °FSunny.10 mph10%30.32 "Hg10 mi
2:53 PM74 °FSunny.14 mph12%30.34 "Hg10 mi
1:53 PM74 °FSunny.12 mph13%30.36 "Hg10 mi
12:53 PM73 °FSunny.16 mph15%30.39 "Hg10 mi
11:53 AM73 °FSunny.21 mph15%30.42 "Hg10 mi
10:53 AM69 °FSunny.14 mph39%30.45 "Hg10 mi
9:53 AM63 °FSunny.10 mph54%30.45 "Hg10 mi
8:53 AM54 °FSunny.7 mph74%30.43 "Hg10 mi
7:53 AM48 °FSunny.7 mph80%30.41 "Hg10 mi
6:53 AM47 °FClear.6 mph83%30.38 "Hg10 mi
5:53 AM51 °FPassing clouds.3 mph83%30.36 "Hg10 mi
4:53 AM50 °FClear.5 mph86%30.34 "Hg10 mi
3:53 AM55 °FPassing clouds.7 mph77%30.33 "Hg10 mi
2:53 AM52 °FPassing clouds.7 mph80%30.32 "Hg10 mi
1:53 AM51 °FClear.6 mph80%30.31 "Hg10 mi
12:53 AM57 °FClear.No wind69%30.28 "Hg10 mi
11:53 PM
Fri, Feb 5
59 °FClear.No wind64%30.29 "Hg10 mi
10:53 PM56 °FClear.No wind72%30.28 "Hg10 mi
9:53 PM61 °FPassing clouds.3 mph58%30.27 "Hg10 mi
8:53 PM63 °FOvercast.3 mph56%30.26 "Hg10 mi
Weather by CustomWeather, © 2016

See weather overviewHow to use our weather pages